NOAA 19

Last updated on Fri Aug 15 2025 00:02:22 GMT+0000 (Coordinated Universal Time)

1 33591U 09005A 25226.60605455 .00000125 00000+0 90552-4 0 9995 2 33591 98.9930 291.6684 0013974 173.0226 187.1143 14.13396089851173
UTC large
Height (km)
Speed (km/s)
/
Latitude / Longitude
Inclination (degrees)
Orbital Period (minutes)
Azimuth
Elevation
Range (km)
Doppler Factor

Next 0 passes for location: London (51.5072 / 0.1276)

Sorry there are no passes over London.
NOAA 19